Regional Weather Roundup
Issued by NWS

Home | Current Version | Previous Version | Graphics & Text | Print | Product List | Glossary On
Versions: 1 2 3 4 5 6 7 8 9 10 11 12 13 14 15 16 17 18 19 20 21 22 23 24 25 26 27 28 29 30 31 32 33 34 35 36 37 38 39 40 41 42 43 44 45 46 47 48 49 50
000
ASUS43 KLMK 060310
RWRKY
KENTUCKY REGIONAL WEATHER ROUNDUP
NATIONAL WEATHER SERVICE LOUISVILLE KY
1100 PM EDT THU MAY 05 2016

NOTE "FAIR" INDICATES FEW OR NO CLOUDS BELOW 12,000 FEET
WITH NO SIGNIFICANT WEATHER AND/OR OBSTRUCTIONS TO VISIBILITY.

KYZ001>023-026-027-061>063-070>075-060400-
WESTERN AND SOUTH CENTRAL KENTUCKY

CITY           SKY/WX    TMP DP  RH WIND       PRES   REMARKS
PADUCAH        CLEAR     49  43  80 SW5       30.00R
HENDERSON      CLEAR     52  45  76 W3        29.98R
OWENSBORO      CLEAR     51  47  86 CALM      29.98R
HOPKINSVILLE   CLEAR     52  45  76 W7        29.99R
BOWLING GREEN  PTCLDY    52  45  77 SW3       29.97R
GLASGOW        CLEAR     44  44 100 CALM      29.96R
$$

KYZ024-025-028>034-038-045-046-053-060400-
NORTH CENTRAL KENTUCKY

CITY           SKY/WX    TMP DP  RH WIND       PRES   REMARKS
LOUISVILLE/SDF PTCLDY    54  43  66 NW7       29.93R
LOUISVILLE/LOU CLEAR     53  44  71 NW5       29.93R
FORT KNOX      PTCLDY    48  44  85 W7        29.93R
$$

KYZ035>037-039>044-047>052-055>060-089>105-060400-
NORTHEAST KENTUCKY

CITY           SKY/WX    TMP DP  RH WIND       PRES   REMARKS
LEXINGTON      CLOUDY    48  45  89 SW3       29.91R
COVINGTON      CLOUDY    54  46  74 NW5       29.89R
FRANKFORT      MOCLDY    50  45  83 CALM      29.90R
$$

KYZ054-064>069-076>088-106>120-060400-
SOUTHEAST KENTUCKY

CITY           SKY/WX    TMP DP  RH WIND       PRES   REMARKS
JACKSON        PTCLDY    48  43  82 NW7       29.87R
LONDON         CLOUDY    49  43  80 NW7       29.90R
SOMERSET       PTCLDY    46  43  87 NW3       29.94S
MIDDLESBORO    MOCLDY    50  43  75 NW8G21    29.88S
MONTICELLO     MOCLDY    49  45  86 NW5       29.96R
$$





USA.gov is the U.S. government's official web portal to all federal, state and local government web resources and services.